{"data":{"norad_id":52626,"intl_designator":"2022-052AE","name":"STARLINK-3990","alt_names":[],"object_type":"PAYLOAD","status":"ACTIVE","operator":null,"country":"US","launch_date":"2022-05-14","launch_site_code":"AFETR","launch_vehicle":null,"mission":null,"orbit_class":"UNKNOWN","rcs_meters":null,"size_class":null,"mass_kg":null,"dimensions":null,"purposes":["comms"],"wikipedia_slug":null,"has_3d_model":false,"image_url":null,"decayed_at":null,"tle_current":{"epoch":"2026-09-20T02:36:31.574592Z","epoch_age_seconds":100289,"freshness":"FRESH","line1":"1 52626U 22052AE  26263.10869878  .00001433  00000+0  53563-4 0  9994","line2":"2 52626  53.1602 103.2936 0000919  85.7905 274.3203 15.34388365240516","mean_motion":15.34388365,"eccentricity":9.19e-5,"inclination_deg":53.1602,"raan_deg":103.2936,"arg_perigee_deg":85.7905,"mean_anomaly_deg":274.3203,"bstar":5.3563e-5,"rev_number":24051,"period_min":93.848469712555,"perigee_km":462.10914570144,"apogee_km":463.36649849374,"semimajor_km":6840.8748220976,"source":"CELESTRAK","updated_at":"2026-09-20T09:00:40.072915Z"}}}